This is the latest recevied weather packets stored in our database for station/object KE8GJZ-2. If no packets are shown the sender has not sent any weather packets the latest 10 day(s).
| Time | Temp. | Humidity | Pressure | Rain* | Wind** | Luminosity | Snow |
|---|---|---|---|---|---|---|---|
| 1777635645 | 3.89° C | 99% | 1015 hPa | 0 mm | - | 48 W/m² | - |
| 1777635342 | 3.89° C | 99% | 1015.1 hPa | 0 mm | - | 41 W/m² | - |
| 1777635039 | 3.89° C | 99% | 1015.1 hPa | 0 mm | - | 31 W/m² | - |
| 1777634735 | 3.89° C | 99% | 1015.1 hPa | 0 mm | - | 25 W/m² | - |
| 1777634433 | 3.89° C | 99% | 1015.1 hPa | 0 mm | - | 21 W/m² | - |
| 1777634129 | 3.89° C | 99% | 1015.1 hPa | 0 mm | - | 18 W/m² | - |
| 1777633826 | 3.89° C | 99% | 1015.1 hPa | 0 mm | - | 13 W/m² | - |
| 1777633524 | 3.33° C | 99% | 1015 hPa | 0 mm | - | 10 W/m² | - |
| 1777633221 | 3.33° C | 99% | 1015 hPa | 0 mm | - | 9 W/m² | - |
| 1777632918 | 3.33° C | 99% | 1015 hPa | 0 mm | - | 6 W/m² | - |
| 1777632614 | 3.89° C | 99% | 1014.9 hPa | 0 mm | - | 5 W/m² | - |
| 1777632311 | 3.89° C | 99% | 1015 hPa | 0 mm | - | 2 W/m² | - |
| 1777632008 | 3.89° C | 99% | 1014.9 hPa | 0 mm | - | 1 W/m² | - |
| 1777631706 | 3.89° C | 99% | 1015 hPa | 0 mm | - | 0 W/m² | - |
| 1777631404 | 3.89° C | 99% | 1015 hPa | 0 mm | - | 0 W/m² | - |
| 1777631100 | 3.89° C | 99% | 1015.1 hPa | 0 mm | - | 0 W/m² | - |
| 1777630797 | 3.89° C | 99% | 1014.8 hPa | 0 mm | - | 0 W/m² | - |
| 1777630493 | 3.89° C | 99% | 1015 hPa | 0 mm | - | 0 W/m² | - |
| 1777630190 | 3.89° C | 99% | 1014.8 hPa | 0 mm | - | 0 W/m² | - |
| 1777629888 | 3.89° C | 99% | 1014.9 hPa | 0 mm | - | 0 W/m² | - |
| 1777629585 | 3.89° C | 99% | 1014.8 hPa | 0 mm | - | 0 W/m² | - |
| 1777629281 | 3.89° C | 99% | 1015 hPa | 0 mm | - | 0 W/m² | - |
| 1777628977 | 3.89° C | 99% | 1015 hPa | 0 mm | - | 0 W/m² | - |
| 1777628675 | 3.89° C | 99% | 1014.7 hPa | 0 mm | - | 0 W/m² | - |
| 1777628371 | 3.89° C | 99% | 1014.7 hPa | 0 mm | - | 0 W/m² | - |
* Rain latest hour (hover to see other rain measurements)
** Current wind speed in m/s (hover to see current wind gust speed)